Hourly Data Report for June 25, 2020

OTTAWA INTL A
ONTARIO
Current Station Operator: NAVCAN

45°19'00.000" N
75°40'00.000" W
114.90 m
6106001
71628
YOW

Download Data

Hourly Data (June 2020)
Hourly Data Report for June 25, 2020
TIME Temp Definition
°C
Dew Point Definition
°C
Rel Hum Definition
%
Wind Dir Definition
10's deg

Wind Spd Definition
km/h
Visibility Definition
km
Stn Press Definition
kPa
Hmdx Definition


Wind Chill Definition


Weather Definition


00:00 16.1 10.4 69 20 13 24.1 99.31     LegendNANA
01:00 16.0 10.6 70 19 10 24.1 99.30     Mostly Cloudy
02:00 15.7 11.4 75 19 20 24.1 99.26     LegendNANA
03:00 16.6 10.9 69 22 28 24.1 99.26     LegendNANA
04:00 16.3 11.0 71 23 24 24.1 99.33     Mostly Cloudy
05:00 15.9 10.7 71 22 33 24.1 99.41     LegendNANA
06:00 16.0 11.1 72 23 27 24.1 99.51     Rain
07:00 16.9 11.1 69 22 24 24.1 99.59     Mostly Cloudy
08:00 18.1 12.0 67 23 21 24.1 99.63     LegendNANA
09:00 19.9 12.1 60 23 22 24.1 99.64     LegendNANA
10:00 20.1 11.5 57 26 25 24.1 99.68     Mostly Cloudy
11:00 21.5 12.4 55 22 23 24.1 99.70     LegendNANA
12:00 21.7 12.4 55 22 21 24.1 99.72     LegendNANA
13:00 22.2 11.8 51 22 25 24.1 99.70     Mostly Cloudy
14:00 23.4 11.6 47 22 19 24.1 99.70 25   LegendNANA
15:00 23.0 10.5 45 22 26 24.1 99.68 25   LegendNANA
16:00 19.7 12.1 61 21 25 24.1 99.70     Mostly Cloudy
17:00 22.8 11.1 47 23 21 24.1 99.65 25   LegendNANA
18:00 23.1 12.4 51 20 20 24.1 99.64 26   LegendNANA
19:00 22.1 11.9 52 21 14 24.1 99.65     Mostly Cloudy
20:00 21.1 10.8 52 21 16 24.1 99.67     LegendNANA
21:00 19.7 10.7 56 20 13 24.1 99.69     LegendNANA
22:00 18.4 10.8 61 20 15 24.1 99.70     Clear
23:00 17.4 11.2 67 20 13 24.1 99.73     LegendNANA

Notes on Data Quality.

Legend

  • E = Estimated
  • M = Missing
  • NA = Not Available*
  • [empty] = Indicates an unobserved value
Date modified: